Hourly Data Report for October 13, 2016

All times are specified in Local Standard Time (LST). Add 1 hour to adjust for Daylight Saving Time where and when it is observed.

CORAL HARBOUR A
NUNAVUT

64°11'36.000" N
83°21'34.000" W
62.20 m
2301002
71915
YZS

Download Data

Hourly Data (October 2016)
Hourly Data Report for October 13, 2016
Temp Definition
°C
Dew Point Temp Definition
°C
Rel Hum Definition
%
Wind Dir Definition
10's deg

Wind Spd Definition
km/h
Visibility Definition
km
Stn Press Definition
kPa
Hmdx Definition


Wind Chill Definition


Weather Definition


TIME
00:00 Legend Double Dagger -3.0 -3.8 94 10 24 24.1 99.60   -10 LegendNANA
01:00 Legend Double Dagger -2.6 -3.2 96 10 27 24.1 99.55   -10 Snow
02:00 Legend Double Dagger -2.9 -3.6 95 10 23 24.1 99.52   -9 Snow
03:00 Legend Double Dagger -2.8 -3.6 94 10 27 24.1 99.49   -10 Snow
04:00 Legend Double Dagger -2.5 -3.2 95 9 30 9.7 99.47   -10 Snow
05:00 Legend Double Dagger -2.6 -3.4 94 10 30 19.3 99.44   -10 Snow
06:00 Legend Double Dagger -2.7 -4.0 91 9 28 9.7 99.43   -10 Snow
07:00 Legend Double Dagger -2.6 -3.9 91 9 26 6.4 99.39   -9 Snow
08:00 Legend Double Dagger -2.6 -3.9 91 8 27 24.1 99.35   -10 Snow
09:00 Legend Double Dagger -2.7 -4.1 90 8 28 24.1 99.28   -10 Snow
10:00 Legend Double Dagger -2.5 -4.1 89 7 29 24.1 99.21   -10 Snow
11:00 Legend Double Dagger -1.6 -2.7 92 10 28 24.1 99.18   -8 Snow
12:00 Legend Double Dagger -1.2 -2.3 92 9 30 24.1 99.17   -8 Snow
13:00 Legend Double Dagger -0.9 -2.6 88 9 33 24.1 99.12   -8 Snow
14:00 Legend Double Dagger -1.0 -2.9 87 9 33 24.1 99.09   -8 Snow
15:00 Legend Double Dagger -1.4 -3.3 87 8 32 19.3 99.05   -9 Snow
16:00 Legend Double Dagger -1.5 -3.1 89 8 32 16.1 99.04   -9 Snow
17:00 Legend Double Dagger -1.5 -2.8 91 8 36 2.4 99.03   -9 Snow
18:00
19:00 Legend Double Dagger -2.8 -3.4 96 10 9 0.4 99.07   -6 Heavy Snow
20:00 Legend Double Dagger -3.0 -3.7 95 7 15 3.2 99.06   -8 Snow
21:00 Legend Double Dagger -3.1 -3.8 95 7 14 12.9 99.07   -8 Snow
22:00 Legend Double Dagger -3.5 -4.2 95 7 20 16.1 99.08   -10 Snow
23:00 Legend Double Dagger -4.6 -5.4 94 7 18 24.1 99.09   -11 Snow

Notes on Data Quality.

Legend

  • E = Estimated
  • M = Missing
  • NA = Not Available
  • ‡ = Partner data that is not subject to review by the National Climate Archives
Date modified: